Radioactive Concentration measured by Seawater Radiation Monitor near Fukushima Daiichi Nuclear Power Station
Date,Time,Cs137(Bq/L),Cs134(Bq/L),Total β(Bq/L)
2019/07/26,00:00,0.60,ND,10
2019/07/26,00:10,0.59,ND,12
2019/07/26,00:20,0.55,ND,11
2019/07/26,00:30,0.60,ND,9.0
2019/07/26,00:40,0.59,ND,9.6
2019/07/26,00:50,0.54,ND,ND
2019/07/26,01:00,0.52,ND,ND
2019/07/26,01:10,0.53,ND,ND
2019/07/26,01:20,0.53,ND,ND
2019/07/26,01:30,0.51,ND,ND
2019/07/26,01:40,0.52,ND,ND
2019/07/26,01:50,0.53,ND,ND
2019/07/26,02:00,0.56,ND,ND
2019/07/26,02:10,0.58,ND,ND
2019/07/26,02:20,0.60,ND,ND
2019/07/26,02:30,0.65,ND,ND
2019/07/26,02:40,0.68,ND,ND
2019/07/26,02:50,0.70,ND,ND
2019/07/26,03:00,0.68,ND,ND
2019/07/26,03:10,0.70,ND,ND
2019/07/26,03:20,0.72,ND,ND
2019/07/26,03:30,0.75,ND,ND
2019/07/26,03:40,0.73,ND,ND
2019/07/26,03:50,0.72,ND,ND
2019/07/26,04:00,0.72,ND,ND
2019/07/26,04:10,0.72,ND,ND
2019/07/26,04:20,0.71,ND,ND
2019/07/26,04:30,0.72,ND,ND
2019/07/26,04:40,0.74,ND,ND
2019/07/26,04:50,0.76,ND,ND
2019/07/26,05:00,0.77,ND,ND
2019/07/26,05:10,0.80,ND,ND
2019/07/26,05:20,0.81,ND,8.8
2019/07/26,05:30,0.79,ND,ND
2019/07/26,05:40,0.80,ND,ND
2019/07/26,05:50,0.79,ND,ND
2019/07/26,06:00,0.80,ND,ND
2019/07/26,06:10,0.78,ND,ND
2019/07/26,06:20,0.72,ND,ND
2019/07/26,06:30,0.72,ND,ND
2019/07/26,06:40,0.72,ND,ND
2019/07/26,06:50,0.72,ND,ND
2019/07/26,07:00,0.70,ND,ND
2019/07/26,07:10,0.69,ND,ND
2019/07/26,07:20,0.71,ND,ND
2019/07/26,07:30,0.71,ND,ND
2019/07/26,07:40,0.69,ND,ND
2019/07/26,07:50,0.68,ND,ND
2019/07/26,08:00,0.69,ND,ND
2019/07/26,08:10,0.67,ND,ND
2019/07/26,08:20,0.66,ND,ND
2019/07/26,08:30,0.68,ND,ND
2019/07/26,08:40,0.70,ND,9.6
2019/07/26,08:50,0.68,ND,ND
2019/07/26,09:00,0.68,ND,ND
2019/07/26,09:10,0.70,ND,ND
2019/07/26,09:20,0.70,ND,ND
2019/07/26,09:30,0.69,ND,ND
2019/07/26,09:40,0.69,ND,ND
2019/07/26,09:50,0.72,ND,ND
2019/07/26,10:00,0.70,ND,ND
2019/07/26,10:10,0.67,ND,ND
2019/07/26,10:20,0.65,ND,ND
2019/07/26,10:30,0.64,ND,ND
2019/07/26,10:40,0.63,ND,ND
2019/07/26,10:50,0.60,ND,ND
2019/07/26,11:00,0.59,ND,ND
2019/07/26,11:10,0.59,ND,ND
2019/07/26,11:20,0.58,ND,ND
2019/07/26,11:30,0.57,ND,ND
2019/07/26,11:40,0.56,ND,ND
2019/07/26,11:50,0.57,ND,ND
2019/07/26,12:00,0.55,ND,ND
2019/07/26,12:10,0.55,ND,ND
2019/07/26,12:20,0.53,ND,ND
2019/07/26,12:30,0.51,ND,ND
2019/07/26,12:40,0.52,ND,ND
2019/07/26,12:50,0.51,ND,ND
2019/07/26,13:00,0.53,ND,ND
2019/07/26,13:10,0.52,ND,ND
2019/07/26,13:20,0.54,ND,ND
2019/07/26,13:30,0.55,ND,ND
2019/07/26,13:40,0.54,ND,9.2
2019/07/26,13:50,0.54,ND,11
2019/07/26,14:00,0.53,ND,8.9
2019/07/26,14:10,0.53,ND,ND
2019/07/26,14:20,0.56,ND,ND
2019/07/26,14:30,0.56,ND,ND
2019/07/26,14:40,0.57,ND,ND
2019/07/26,14:50,0.57,ND,ND
2019/07/26,15:00,0.58,ND,ND
2019/07/26,15:10,0.54,ND,ND
2019/07/26,15:20,0.55,ND,10
2019/07/26,15:30,0.55,ND,10
2019/07/26,15:40,0.54,ND,ND
2019/07/26,15:50,0.56,ND,ND
2019/07/26,16:00,0.60,ND,ND
2019/07/26,16:10,0.60,ND,10
2019/07/26,16:20,0.61,ND,ND
2019/07/26,16:30,0.61,ND,ND
2019/07/26,16:40,0.62,ND,ND
2019/07/26,16:50,0.60,ND,ND
2019/07/26,17:00,0.62,ND,ND
2019/07/26,17:10,0.62,ND,ND
2019/07/26,17:20,0.60,ND,ND
2019/07/26,17:30,0.62,ND,ND
2019/07/26,17:40,0.58,ND,ND
2019/07/26,17:50,0.59,ND,ND
2019/07/26,18:00,0.59,ND,ND
2019/07/26,18:10,0.59,ND,ND
2019/07/26,18:20,0.60,ND,ND
2019/07/26,18:30,0.59,ND,ND
2019/07/26,18:40,0.60,ND,ND
2019/07/26,18:50,0.59,ND,ND
2019/07/26,19:00,0.59,ND,9.6
2019/07/26,19:10,0.64,ND,8.8
2019/07/26,19:20,0.64,ND,ND
2019/07/26,19:30,0.59,ND,ND
2019/07/26,19:40,0.57,ND,ND
2019/07/26,19:50,0.62,ND,ND
2019/07/26,20:00,0.62,ND,ND
2019/07/26,20:10,0.56,ND,ND
2019/07/26,20:20,0.56,ND,ND
2019/07/26,20:30,0.57,ND,ND
2019/07/26,20:40,0.58,ND,ND
2019/07/26,20:50,0.56,ND,ND
2019/07/26,21:00,0.57,ND,ND
2019/07/26,21:10,0.57,ND,ND
2019/07/26,21:20,0.56,ND,ND
2019/07/26,21:30,0.54,ND,ND
2019/07/26,21:40,0.53,ND,ND
2019/07/26,21:50,0.54,ND,ND
2019/07/26,22:00,0.54,ND,ND
2019/07/26,22:10,0.54,ND,ND
2019/07/26,22:20,0.54,ND,ND
2019/07/26,22:30,0.56,ND,ND
2019/07/26,22:40,0.56,ND,ND
2019/07/26,22:50,0.55,ND,ND
2019/07/26,23:00,0.54,ND,ND
2019/07/26,23:10,0.55,ND,ND
2019/07/26,23:20,0.54,ND,ND
2019/07/26,23:30,0.53,ND,ND
2019/07/26,23:40,0.55,ND,ND
2019/07/26,23:50,0.56,ND,ND
